Date,TemperatureHighF,TemperatureAvgF,TemperatureLowF,DewpointHighF,DewpointAvgF,DewpointLowF,HumidityHigh,HumidityAvg,HumidityLow,PressureMaxIn,PressureMinIn,WindSpeedMaxMPH,WindSpeedAvgMPH,GustSpeedMaxMPH,PrecipitationSumIn
2013-1-1,34.0,27.3,25.0,21.0,11.3,1.0,78,52,24,0.00,40.00,29,16,34,0.00
2013-1-2,36.0,30.1,26.0,8.0,4.0,-2.0,46,33,22,0.00,40.00,30,20,34,0.00
2013-1-3,36.0,34.1,32.0,6.0,1.4,-9.0,31,25,14,0.00,40.00,30,21,39,0.00
2013-1-4,46.0,37.8,30.0,10.0,-4.0,-32.0,27,18,3,0.00,40.00,23,11,24,0.00
2013-1-5,52.0,45.5,38.0,8.0,-5.6,-31.0,28,13,3,0.00,40.00,28,9,32,0.00
2013-1-6,35.0,32.5,29.0,30.0,13.4,0.0,94,53,23,0.00,40.00,41,34,47,0.41
2013-1-7,40.0,36.6,34.0,17.0,12.4,9.0,49,37,29,0.00,40.00,32,25,41,0.00
2013-1-8,49.0,45.4,40.0,23.0,14.5,2.0,37,29,18,0.00,40.00,27,14,34,0.00
2013-1-9,52.0,47.0,41.0,27.0,21.7,18.0,45,36,30,0.00,40.00,33,18,48,0.00
2013-1-10,41.0,34.7,29.0,28.0,23.4,19.0,89,66,44,0.00,40.00,43,27,58,0.00
2013-1-11,22.0,19.8,18.0,17.0,15.9,15.0,90,85,75,0.00,40.00,42,39,47,0.00
2013-1-12,26.0,21.4,18.0,17.0,15.1,13.0,89,77,64,0.00,40.00,42,21,47,0.00
2013-1-13,28.0,21.4,18.0,18.0,10.5,3.0,86,63,47,0.00,40.00,47,13,52,0.00
2013-1-14,21.0,18.3,16.0,8.0,-4.0,-11.0,66,38,24,0.00,40.00,30,14,38,0.00
2013-1-15,32.0,25.7,19.0,11.0,4.7,-9.0,45,40,28,0.00,40.00,39,30,45,0.00
2013-1-16,37.0,34.1,30.0,15.0,13.7,11.0,49,43,35,0.00,40.00,39,29,48,0.00
2013-1-17,41.0,38.5,36.0,12.0,10.2,8.0,35,31,27,0.00,40.00,26,19,31,0.00
2013-1-18,43.0,41.1,38.0,14.0,11.8,10.0,33,30,27,0.00,40.00,19,14,23,0.00
2013-1-19,45.0,42.2,40.0,11.0,9.1,6.0,29,25,20,0.00,40.00,16,13,21,0.00
2013-1-20,47.0,45.0,42.0,9.0,3.5,-2.0,22,18,13,0.00,40.00,18,13,20,0.00
2013-1-21,47.0,45.5,43.0,2.0,-1.5,-4.0,16,14,12,0.00,40.00,23,14,25,0.00
2013-1-22,58.0,49.8,44.0,26.0,5.4,-12.0,38,18,7,0.00,40.00,19,12,23,0.00
2013-1-23,54.0,50.7,46.0,33.0,25.8,19.0,61,39,28,0.00,40.00,27,16,30,0.00
2013-1-24,48.0,44.8,41.0,45.0,40.8,30.0,95,86,57,0.00,40.00,35,13,37,0.00
2013-1-25,45.0,43.3,40.0,44.0,42.3,39.0,96,96,95,0.00,40.00,15,11,17,0.00
2013-1-26,43.0,41.0,39.0,42.0,39.2,37.0,95,93,80,0.00,40.00,21,14,26,0.00
2013-1-27,38.0,32.5,25.0,37.0,30.3,23.0,95,92,85,0.00,40.00,59,29,60,0.00
2013-1-28,25.0,24.3,24.0,23.0,21.6,17.0,93,89,74,0.00,40.00,30,13,30,0.00
2013-1-29,50.0,35.4,24.0,26.0,21.7,17.0,85,59,34,0.00,40.00,43,24,48,0.00
2013-1-30,45.0,39.0,34.0,24.0,21.4,20.0,62,49,39,0.00,40.00,29,16,31,0.00
2013-1-31,45.0,42.6,40.0,26.0,24.0,19.0,54,48,37,0.00,40.00,26,15,31,0.00